{"data":{"norad_id":54869,"epoch":"2026-09-20T22:07:19.876512Z","epoch_age_seconds":56215,"freshness":"FRESH","line1":"1 54869U 22177BB  26263.92175783  .00000733  00000+0  36147-4 0  9999","line2":"2 54869  43.0021  99.4535 0001318 257.4854 102.5850 15.27583580206943","mean_motion":15.2758358,"eccentricity":0.0001318,"inclination_deg":43.0021,"raan_deg":99.4535,"arg_perigee_deg":257.4854,"mean_anomaly_deg":102.585,"bstar":3.6147e-5,"rev_number":20694,"period_min":94.266527792869,"perigee_km":482.1340733381,"apogee_km":483.94267916728,"semimajor_km":6861.1753762527,"source":"CELESTRAK","updated_at":"2026-09-21T09:00:33.162429Z"}}